Oskaloosa, IA

7:21 PM CST on January 21, 2018 (GMT -0600)
Oskaloosa Municipal

Weather History for KOOA - December, 2012

Change the Weather History Date:

Tuesday, December 25, 2012

  Actual Average (KOTM) Record (KOTM)
Temperature  
Mean Temperature 12 °F -  
Max Temperature 17 °F 29 °F 60 °F (1936)
Min Temperature 7 °F 14 °F -15 °F (1983)
Degree Days  
Heating Degree Days 53    
Moisture  
Dew Point 6 °F    
Average Humidity 78    
Maximum Humidity 84    
Minimum Humidity 71    
Precipitation  
Precipitation 0.00 in - - ()
Sea Level Pressure  
Sea Level Pressure 30.30 in    
Wind  
Wind Speed 11 mph (North)    
Max Wind Speed 17 mph    
Max Gust Speed 21 mph    
Visibility 10 miles    
Events      
Averages and records for this station are not official NWS values.
T = Trace of Precipitation, MM = Missing Value Source: NWS Daily Summary

Daily Weather History Graph

Daily Weather History Graph

Search for Another Location

Airport or City:

Trip Planner

Search our weather history database for the weather conditions in past years. The results will help you decide how hot, cold, wet, or windy it might be!

Date:

Astronomy

Dec. 25, 2012 Rise Set
Actual Time 7:34 AM CST 4:46 PM CST
Civil Twilight 7:02 AM CST 5:17 PM CST
Nautical Twilight 6:28 AM CST 5:52 PM CST
Astronomical Twilight 5:54 AM CST 6:26 PM CST
Moon 2:55 PM CST (12/25) 5:06 AM CST (12/25)
Length of Visible Light 10h 15m
Length of Day
9h 12m
Waxing Gibbous, 94% of the Moon is Illuminated
Dec 25
Waxing Gibbous
Dec 28
Full
Jan 4
Last Quarter
Jan 11
New
Jan 18
First Quarter

Hourly Weather History & Observations

Time (CST) Temp. Windchill Dew Point Humidity Pressure Visibility Wind Dir Wind Speed Gust Speed Precip Events Conditions
12:15 AM 14.0 °F 0.5 °F 10.0 °F 84% 30.21 in 10.0 mi NNW 11.5 mph - N/A   Scattered Clouds
12:35 AM 13.8 °F 1.0 °F 9.5 °F 83% 30.22 in 10.0 mi North 10.4 mph - N/A   Scattered Clouds
12:55 AM 13.5 °F 0.5 °F 9.1 °F 83% 30.22 in 10.0 mi North 10.4 mph - N/A   Clear
1:15 AM 13.1 °F 0.1 °F 8.6 °F 82% 30.23 in 10.0 mi North 10.4 mph - N/A   Clear
1:35 AM 12.7 °F 0.4 °F 8.2 °F 82% 30.23 in 10.0 mi North 9.2 mph - N/A   Clear
1:55 AM 12.2 °F -1.8 °F 7.7 °F 82% 30.23 in 10.0 mi North 11.5 mph - N/A   Clear
2:15 AM 11.7 °F -1.7 °F 7.3 °F 83% 30.23 in 10.0 mi North 10.4 mph - N/A   Clear
2:35 AM 11.3 °F -0.4 °F 6.8 °F 82% 30.25 in 10.0 mi NNW 8.1 mph - N/A   Clear
2:55 AM 10.8 °F -1.1 °F 6.3 °F 82% 30.26 in 10.0 mi North 8.1 mph - N/A   Clear
3:15 AM 10.4 °F -0.4 °F 5.9 °F 82% 30.26 in 10.0 mi NNW 6.9 mph - N/A   Clear
3:35 AM 10.0 °F -3.7 °F 5.5 °F 82% 30.26 in 10.0 mi North 10.4 mph - N/A   Clear
3:55 AM 10.0 °F -3.7 °F 5.4 °F 81% 30.26 in 10.0 mi North 10.4 mph - N/A   Clear
4:15 AM 9.9 °F -2.2 °F 5.0 °F 81% 30.27 in 10.0 mi North 8.1 mph - N/A   Clear
4:35 AM 9.5 °F -4.4 °F 5.0 °F 82% 30.27 in 10.0 mi North 10.4 mph - N/A   Scattered Clouds
4:55 AM 9.5 °F -3.5 °F 4.6 °F 81% 30.27 in 10.0 mi North 9.2 mph - N/A   Scattered Clouds
5:15 AM 9.3 °F -4.6 °F 4.1 °F 79% 30.27 in 10.0 mi North 10.4 mph - N/A   Clear
5:35 AM 9.1 °F -4.9 °F 3.7 °F 79% 30.28 in 10.0 mi North 10.4 mph - N/A   Clear
5:55 AM 8.6 °F -4.7 °F 3.4 °F 79% 30.28 in 10.0 mi North 9.2 mph - N/A   Clear
6:15 AM 8.4 °F -4.9 °F 3.2 °F 79% 30.29 in 10.0 mi North 9.2 mph - N/A   Clear
6:35 AM 8.2 °F -5.1 °F 3.0 °F 79% 30.30 in 10.0 mi North 9.2 mph - N/A   Clear
6:55 AM 8.2 °F -6.8 °F 2.8 °F 79% 30.30 in 10.0 mi North 11.5 mph - N/A   Clear
7:15 AM 8.1 °F -7.0 °F 2.3 °F 77% 30.31 in 10.0 mi North 11.5 mph - N/A   Clear
7:35 AM 7.9 °F -7.2 °F 2.3 °F 78% 30.31 in 10.0 mi North 11.5 mph - N/A   Clear
7:55 AM 7.7 °F -9.5 °F 2.3 °F 79% 30.29 in 10.0 mi North 15.0 mph - N/A   Clear
8:15 AM 8.2 °F -6.8 °F 2.8 °F 79% 30.30 in 10.0 mi North 11.5 mph - N/A   Clear
8:35 AM 8.6 °F -8.3 °F 3.0 °F 78% 30.30 in 10.0 mi North 15.0 mph - N/A   Clear
8:55 AM 9.3 °F -6.1 °F 3.4 °F 77% 30.32 in 10.0 mi North 12.7 mph - N/A   Clear
9:15 AM 10.0 °F -2.9 °F 3.9 °F 76% 30.35 in 10.0 mi North 9.2 mph - N/A   Clear
9:35 AM 11.3 °F -1.3 °F 4.6 °F 75% 30.38 in 10.0 mi North 9.2 mph - N/A   Clear
9:55 AM 12.0 °F -2.0 °F 5.0 °F 73% 30.39 in 10.0 mi North 11.5 mph - N/A   Clear
10:15 AM 12.4 °F -0.8 °F 5.2 °F 73% 30.39 in 10.0 mi North 10.4 mph - N/A   Clear
10:35 AM 13.6 °F 0.0 °F 6.6 °F 74% 30.39 in 10.0 mi North 11.5 mph - N/A   Clear
10:55 AM 13.6 °F 0.7 °F 5.9 °F 71% 30.39 in 10.0 mi North 10.4 mph - N/A   Clear
11:15 AM 14.4 °F 1.6 °F 6.8 °F 72% 30.39 in 10.0 mi NNW 10.4 mph - N/A   Clear
11:35 AM 13.8 °F 0.2 °F 6.4 °F 72% 30.39 in 10.0 mi North 11.5 mph - N/A   Clear
11:55 AM 14.2 °F 0.7 °F 6.6 °F 72% 30.38 in 10.0 mi North 11.5 mph - N/A   Clear
12:15 PM 15.4 °F -0.1 °F 7.5 °F 71% 30.34 in 10.0 mi North 16.1 mph - N/A   Clear
12:35 PM 15.8 °F -0.2 °F 8.1 °F 72% 30.30 in 10.0 mi North 17.3 mph - N/A   Clear
12:55 PM 16.5 °F 1.3 °F 8.8 °F 72% 30.28 in 10.0 mi North 16.1 mph 20.7 mph N/A   Clear
1:15 PM 16.3 °F 1.6 °F 8.6 °F 72% 30.30 in 10.0 mi North 15.0 mph - N/A   Clear
1:35 PM 16.7 °F 3.2 °F 8.8 °F 71% 30.32 in 10.0 mi North 12.7 mph - N/A   Clear
1:55 PM 17.4 °F 4.7 °F 9.5 °F 71% 30.32 in 10.0 mi North 11.5 mph - N/A   Clear
2:15 PM 17.4 °F 4.1 °F 9.9 °F 72% 30.32 in 10.0 mi North 12.7 mph - N/A   Clear
2:35 PM 17.4 °F 2.9 °F 9.7 °F 72% 30.31 in 10.0 mi North 15.0 mph - N/A   Clear
2:55 PM 16.7 °F 1.5 °F 9.3 °F 73% 30.30 in 10.0 mi North 16.1 mph - N/A   Clear
3:15 PM 16.7 °F 2.6 °F 9.3 °F 73% 30.31 in 10.0 mi North 13.8 mph - N/A   Clear
3:35 PM 16.5 °F 1.3 °F 9.5 °F 74% 30.31 in 10.0 mi North 16.1 mph - N/A   Clear
3:55 PM 15.8 °F 0.9 °F 9.0 °F 74% 30.31 in 10.0 mi North 15.0 mph - N/A   Clear
4:15 PM 15.4 °F 1.6 °F 9.0 °F 76% 30.32 in 10.0 mi North 12.7 mph - N/A   Clear
4:35 PM 14.9 °F 0.9 °F 8.6 °F 76% 30.34 in 10.0 mi North 12.7 mph - N/A   Clear
4:55 PM 14.4 °F -0.4 °F 8.2 °F 77% 30.34 in 10.0 mi North 13.8 mph - N/A   Clear
5:15 PM 14.0 °F -1.4 °F 8.2 °F 78% 30.34 in 10.0 mi North 15.0 mph - N/A   Clear
5:35 PM 13.5 °F -0.2 °F 7.7 °F 78% 30.34 in 10.0 mi North 11.5 mph - N/A   Clear
5:55 PM 13.1 °F -1.4 °F 7.7 °F 79% 30.34 in 10.0 mi North 12.7 mph - N/A   Clear
6:35 PM 12.6 °F -2.0 °F 7.3 °F 80% 30.34 in 10.0 mi North 12.7 mph - N/A   Clear
6:55 PM 12.2 °F -2.5 °F 7.2 °F 80% 30.34 in 10.0 mi North 12.7 mph - N/A   Clear
7:15 PM 12.2 °F -0.2 °F 6.8 °F 79% 30.34 in 10.0 mi North 9.2 mph - N/A   Clear
7:35 PM 12.2 °F -1.8 °F 6.8 °F 79% 30.34 in 10.0 mi North 11.5 mph - N/A   Clear
7:55 PM 11.8 °F -2.3 °F 6.6 °F 80% 30.34 in 10.0 mi North 11.5 mph - N/A   Clear
8:15 PM 11.7 °F -2.5 °F 6.4 °F 80% 30.33 in 10.0 mi North 11.5 mph - N/A   Clear
8:35 PM 11.3 °F -2.9 °F 6.4 °F 81% 30.32 in 10.0 mi North 11.5 mph - N/A   Clear
8:55 PM 11.3 °F -3.6 °F 6.4 °F 81% 30.31 in 10.0 mi North 12.7 mph - N/A   Clear
9:15 PM 11.1 °F -4.5 °F 6.3 °F 81% 30.30 in 10.0 mi North 13.8 mph - N/A   Clear
10:15 PM 10.9 °F -4.1 °F 5.9 °F 80% 30.28 in 10.0 mi North 12.7 mph - N/A   Clear
10:35 PM 11.3 °F -3.6 °F 6.1 °F 80% 30.28 in 10.0 mi North 12.7 mph - N/A   Clear
10:55 PM 11.3 °F -3.6 °F 6.1 °F 80% 30.28 in 10.0 mi North 12.7 mph - N/A   Clear
11:15 PM 11.3 °F -4.3 °F 5.9 °F 79% 30.27 in 10.0 mi North 13.8 mph - N/A   Clear
11:35 PM 11.7 °F -3.8 °F 6.1 °F 78% 30.27 in 10.0 mi North 13.8 mph - N/A   Clear
11:55 PM 11.8 °F -3.6 °F 6.3 °F 78% 30.27 in 10.0 mi North 13.8 mph - N/A   Clear